This is the latest recevied weather packets stored in our database for station/object N1ORT. If no packets are shown the sender has not sent any weather packets the latest 10 day(s).
| Time | Temp. | Humidity | Pressure | Rain* | Wind** | Luminosity | Snow |
|---|---|---|---|---|---|---|---|
| 1777762558 | 8.89° C | 98% | 1008.4 hPa | 0 mm | - | 76 W/m² | - |
| 1777762255 | 8.89° C | 98% | 1008.1 hPa | 0 mm | - | 79 W/m² | - |
| 1777761951 | 8.89° C | 98% | 1008.2 hPa | 0 mm | - | 79 W/m² | - |
| 1777761648 | 8.89° C | 98% | 1008.4 hPa | 1.27 mm | - | 46 W/m² | - |
| 1777761346 | 8.89° C | 97% | 1008.4 hPa | 1.27 mm | - | 23 W/m² | - |
| 1777761044 | 8.89° C | 97% | 1008.3 hPa | 0.51 mm | - | 17 W/m² | - |
| 1777760741 | 8.89° C | 97% | 1008.6 hPa | 0.51 mm | - | 10 W/m² | - |
| 1777760437 | 8.89° C | 96% | 1008.5 hPa | 1.78 mm | - | 7 W/m² | - |
| 1777760133 | 8.89° C | 96% | 1008.6 hPa | 1.78 mm | - | 12 W/m² | - |
| 1777759831 | 8.89° C | 95% | 1008.6 hPa | 3.05 mm | - | 17 W/m² | - |
| 1777759526 | 9.44° C | 95% | 1008.4 hPa | 3.56 mm | - | 17 W/m² | - |
| 1777759223 | 9.44° C | 94% | 1008.9 hPa | 5.33 mm | - | 16 W/m² | - |
| 1777758921 | 9.44° C | 94% | 1008.5 hPa | 4.83 mm | - | 13 W/m² | - |
| 1777758617 | 10° C | 91% | 1008.5 hPa | 2.29 mm | - | 10 W/m² | - |
| 1777758315 | 10° C | 90% | 1008.5 hPa | 0.51 mm | - | 9 W/m² | - |
| 1777758012 | 10° C | 88% | 1008.3 hPa | 0 mm | - | 9 W/m² | - |
| 1777757708 | 10° C | 87% | 1008.5 hPa | 0 mm | - | 12 W/m² | - |
| 1777757407 | 10° C | 86% | 1008.2 hPa | 0 mm | - | 11 W/m² | - |
| 1777757105 | 10° C | 86% | 1008.5 hPa | 0 mm | - | 18 W/m² | - |
| 1777756802 | 10° C | 86% | 1008.4 hPa | 0 mm | - | 18 W/m² | - |
| 1777756497 | 10° C | 86% | 1008.4 hPa | 0 mm | - | 23 W/m² | - |
| 1777756195 | 10° C | 86% | 1008.4 hPa | 0 mm | - | 23 W/m² | - |
| 1777755892 | 10° C | 86% | 1008.4 hPa | 0 mm | - | 13 W/m² | - |
| 1777755589 | 10.56° C | 85% | 1008.3 hPa | 0 mm | - | 21 W/m² | - |
| 1777755285 | 10.56° C | 86% | 1008.3 hPa | 0 mm | - | 34 W/m² | - |
* Rain latest hour (hover to see other rain measurements)
** Current wind speed in m/s (hover to see current wind gust speed)